EZY85JY EGKK-LDDU

Flight info

Callsign EZY85JY
Flight time 2h 13m
Altitude 23000
Route DVR L9 KONAN/N0434F350 DCT KOK DCT KOMOB DCT KRH/N0441F370 DCT UTABA DCT BEMKI DCT ELMEM DCT DIRAB DCT PEVAL DCT SPL DCT SIPAL
Aircraft A320/M-SDE2E3FGHIJ1RWXYZ/LB1

Departure

Time 2026-05-07 15:20
Airport London Gatwick Airport (EGKK)

Arrival

Time 2026-05-07 17:33
Airport Dubrovnik Ruđer Bošković Airport (LDDU)
Time Latitude Longitude Altitude Speed Heading
2026-05-07 14:50 51.16113 -0.18011 199 ft 0 kts 77°
2026-05-07 14:51 51.16123 -0.18011 199 ft 0 kts 78°
2026-05-07 15:04 51.16121 -0.18027 199 ft 2 kts 77°
2026-05-07 15:04 51.16118 -0.18050 199 ft 2 kts 78°
2026-05-07 15:04 51.16114 -0.18074 199 ft 2 kts 78°
2026-05-07 15:05 51.16111 -0.18097 200 ft 2 kts 78°
2026-05-07 15:05 51.16108 -0.18121 199 ft 2 kts 78°
2026-05-07 15:05 51.16105 -0.18144 199 ft 2 kts 86°
2026-05-07 15:05 51.16109 -0.18166 199 ft 2 kts 129°
2026-05-07 15:06 51.16119 -0.18180 199 ft 0 kts 162°
2026-05-07 15:06 51.16125 -0.18182 199 ft 1 kts 169°
2026-05-07 15:06 51.16128 -0.18182 199 ft 0 kts 168°
2026-05-07 15:10 51.16127 -0.18182 199 ft 0 kts 168°
2026-05-07 15:10 51.16116 -0.18178 199 ft 3 kts 167°
2026-05-07 15:10 51.16079 -0.18165 200 ft 6 kts 167°
2026-05-07 15:11 51.16030 -0.18147 199 ft 7 kts 167°
2026-05-07 15:11 51.15967 -0.18124 199 ft 10 kts 166°
2026-05-07 15:11 51.15885 -0.18092 200 ft 13 kts 166°
2026-05-07 15:11 51.15792 -0.18058 199 ft 13 kts 167°
2026-05-07 15:12 51.15699 -0.18057 199 ft 14 kts 219°
2026-05-07 15:12 51.15665 -0.18208 199 ft 15 kts 259°
2026-05-07 15:12 51.15622 -0.18347 199 ft 14 kts 194°
2026-05-07 15:12 51.15520 -0.18324 199 ft 15 kts 167°
2026-05-07 15:13 51.15413 -0.18285 199 ft 16 kts 168°
2026-05-07 15:13 51.15303 -0.18245 199 ft 16 kts 169°
2026-05-07 15:13 51.15206 -0.18219 199 ft 8 kts 210°
2026-05-07 15:13 51.15179 -0.18351 199 ft 16 kts 259°
2026-05-07 15:14 51.15151 -0.18563 199 ft 21 kts 258°
2026-05-07 15:14 51.15122 -0.18793 199 ft 21 kts 260°
2026-05-07 15:14 51.15091 -0.19021 199 ft 20 kts 255°
2026-05-07 15:14 51.15061 -0.19244 199 ft 20 kts 258°
2026-05-07 15:15 51.15030 -0.19467 199 ft 20 kts 260°
2026-05-07 15:15 51.15000 -0.19689 199 ft 20 kts 257°
2026-05-07 15:15 51.14968 -0.19910 199 ft 20 kts 257°
2026-05-07 15:15 51.14936 -0.20129 199 ft 20 kts 257°
2026-05-07 15:16 51.14905 -0.20347 199 ft 20 kts 258°
2026-05-07 15:16 51.14876 -0.20566 199 ft 20 kts 258°
2026-05-07 15:16 51.14846 -0.20787 199 ft 20 kts 258°
2026-05-07 15:16 51.14818 -0.21004 200 ft 20 kts 258°
2026-05-07 15:17 51.14779 -0.21217 199 ft 20 kts 254°
2026-05-07 15:17 51.14710 -0.21368 199 ft 17 kts 171°
2026-05-07 15:17 51.14622 -0.21329 199 ft 1 kts 167°
2026-05-07 15:18 51.14605 -0.21323 199 ft 7 kts 167°
2026-05-07 15:18 51.14529 -0.21248 199 ft 15 kts 120°
2026-05-07 15:18 51.14525 -0.21128 199 ft 6 kts 76°
2026-05-07 15:19 51.14526 -0.21123 199 ft 0 kts 76°
2026-05-07 15:19 51.14526 -0.21122 199 ft 0 kts 76°
2026-05-07 15:19 51.14529 -0.21103 199 ft 8 kts 76°
2026-05-07 15:19 51.14594 -0.20624 200 ft 78 kts 78°
2026-05-07 15:20 51.14756 -0.19453 200 ft 136 kts 78°
2026-05-07 15:20 51.14990 -0.17785 393 ft 165 kts 79°
2026-05-07 15:20 51.15224 -0.15972 879 ft 173 kts 79°
2026-05-07 15:20 51.15479 -0.14126 1592 ft 171 kts 79°
2026-05-07 15:21 51.15740 -0.12283 2188 ft 177 kts 79°
2026-05-07 15:21 51.16015 -0.10320 2668 ft 190 kts 79°
2026-05-07 15:21 51.16312 -0.08178 3103 ft 206 kts 78°
2026-05-07 15:21 51.16632 -0.05849 3478 ft 227 kts 80°
2026-05-07 15:22 51.16843 -0.03237 3921 ft 247 kts 88°
2026-05-07 15:22 51.16855 -0.00452 4437 ft 261 kts 92°
2026-05-07 15:22 51.16803 0.02451 5180 ft 267 kts 92°
2026-05-07 15:22 51.16742 0.05409 5952 ft 270 kts 92°
2026-05-07 15:23 51.16682 0.08403 6700 ft 273 kts 92°
2026-05-07 15:23 51.16625 0.11415 7452 ft 277 kts 92°
2026-05-07 15:23 51.16567 0.14481 8206 ft 280 kts 92°
2026-05-07 15:23 51.16536 0.17577 8945 ft 284 kts 90°
2026-05-07 15:24 51.16547 0.20714 9673 ft 287 kts 90°
2026-05-07 15:24 51.16562 0.23876 10371 ft 290 kts 90°
2026-05-07 15:24 51.16572 0.27123 11054 ft 294 kts 90°
2026-05-07 15:24 51.16579 0.30376 11712 ft 297 kts 90°
2026-05-07 15:25 51.16584 0.33633 12344 ft 301 kts 90°
2026-05-07 15:25 51.16589 0.37007 13003 ft 305 kts 90°
2026-05-07 15:25 51.16593 0.40398 13667 ft 308 kts 90°
2026-05-07 15:25 51.16595 0.43776 14346 ft 310 kts 90°
2026-05-07 15:26 51.16596 0.47203 15069 ft 313 kts 90°
2026-05-07 15:26 51.16595 0.50716 15639 ft 318 kts 90°
2026-05-07 15:26 51.16592 0.54277 15914 ft 332 kts 90°
2026-05-07 15:26 51.16589 0.58042 16255 ft 343 kts 90°
2026-05-07 15:27 51.16585 0.61877 16784 ft 347 kts 90°
2026-05-07 15:27 51.16580 0.65727 17332 ft 349 kts 91°
2026-05-07 15:27 51.16575 0.69560 17833 ft 353 kts 91°
2026-05-07 15:27 51.16566 0.73511 18336 ft 356 kts 91°
2026-05-07 15:28 51.16557 0.77457 18828 ft 359 kts 91°
2026-05-07 15:28 51.16546 0.81414 19305 ft 363 kts 91°
2026-05-07 15:28 51.16533 0.85494 19787 ft 366 kts 91°
2026-05-07 15:28 51.16519 0.89523 20253 ft 369 kts 91°
2026-05-07 15:29 51.16504 0.93601 20730 ft 372 kts 91°
2026-05-07 15:29 51.16486 0.97767 21190 ft 375 kts 91°
2026-05-07 15:29 51.16468 1.01891 21645 ft 378 kts 91°
2026-05-07 15:29 51.16449 1.06099 22097 ft 381 kts 91°
2026-05-07 15:30 51.16427 1.10318 22538 ft 384 kts 91°
2026-05-07 15:30 51.16403 1.14606 22970 ft 387 kts 91°
2026-05-07 15:30 51.16378 1.18854 23382 ft 390 kts 91°
2026-05-07 15:30 51.16350 1.23194 23789 ft 392 kts 91°
2026-05-07 15:31 51.16320 1.27554 24182 ft 396 kts 91°
2026-05-07 15:31 51.16289 1.31924 24564 ft 398 kts 91°
2026-05-07 15:31 51.16228 1.36304 24960 ft 401 kts 93°
2026-05-07 15:31 51.16043 1.40755 25369 ft 402 kts 95°
2026-05-07 15:32 51.15832 1.45205 25747 ft 404 kts 95°
2026-05-07 15:32 51.15614 1.49669 26108 ft 407 kts 95°
2026-05-07 15:32 51.15393 1.54170 26464 ft 409 kts 95°
2026-05-07 15:32 51.15174 1.58634 26810 ft 412 kts 95°
2026-05-07 15:33 51.14949 1.63203 27144 ft 413 kts 95°
2026-05-07 15:33 51.14724 1.67769 27458 ft 416 kts 95°
2026-05-07 15:33 51.14496 1.72350 27776 ft 418 kts 95°
2026-05-07 15:33 51.14266 1.76925 28079 ft 420 kts 96°
2026-05-07 15:34 51.14030 1.81568 28392 ft 422 kts 96°
2026-05-07 15:34 51.13792 1.86207 28688 ft 424 kts 96°
2026-05-07 15:34 51.13549 1.90886 28980 ft 426 kts 96°
2026-05-07 15:34 51.13303 1.95602 29272 ft 428 kts 96°
2026-05-07 15:35 51.13056 2.00322 29555 ft 429 kts 96°
2026-05-07 15:35 51.12808 2.05048 29827 ft 431 kts 96°
2026-05-07 15:35 51.12559 2.09731 30095 ft 432 kts 95°
2026-05-07 15:35 51.12301 2.14533 30348 ft 433 kts 95°
2026-05-07 15:36 51.12043 2.19319 30568 ft 435 kts 95°
2026-05-07 15:36 51.11785 2.24078 30809 ft 437 kts 95°
2026-05-07 15:36 51.11520 2.28910 31038 ft 439 kts 95°
2026-05-07 15:36 51.11254 2.33739 31240 ft 441 kts 95°
2026-05-07 15:37 51.10986 2.38551 31432 ft 443 kts 95°
2026-05-07 15:37 51.10708 2.43489 31646 ft 445 kts 95°
2026-05-07 15:37 51.10435 2.48323 31863 ft 446 kts 95°
2026-05-07 15:37 51.10113 2.53243 32064 ft 447 kts 98°
2026-05-07 15:38 51.09609 2.58105 32254 ft 449 kts 102°
2026-05-07 15:38 51.08896 2.62942 32460 ft 449 kts 106°
2026-05-07 15:38 51.07980 2.67698 32670 ft 449 kts 110°
2026-05-07 15:38 51.06873 2.72323 32863 ft 449 kts 114°
2026-05-07 15:39 51.05585 2.76792 33033 ft 450 kts 118°
2026-05-07 15:39 51.04130 2.81211 33254 ft 450 kts 119°
2026-05-07 15:39 51.02673 2.85558 33485 ft 449 kts 120°
2026-05-07 15:39 51.01275 2.89720 33700 ft 449 kts 119°
2026-05-07 15:40 50.99976 2.93591 33891 ft 449 kts 119°
2026-05-07 15:40 50.98545 2.97853 34089 ft 449 kts 119°
2026-05-07 15:40 50.97065 3.02261 34284 ft 449 kts 120°
2026-05-07 15:40 50.95611 3.06588 34452 ft 449 kts 120°
2026-05-07 15:41 50.94142 3.10950 34608 ft 450 kts 120°
2026-05-07 15:41 50.92661 3.15343 34759 ft 451 kts 120°
2026-05-07 15:41 50.91190 3.19696 34899 ft 451 kts 120°
2026-05-07 15:41 50.89718 3.24042 35026 ft 451 kts 119°
2026-05-07 15:42 50.88235 3.28417 35140 ft 451 kts 119°
2026-05-07 15:42 50.86751 3.32790 35254 ft 452 kts 119°
2026-05-07 15:42 50.85257 3.37185 35362 ft 452 kts 119°
2026-05-07 15:42 50.83775 3.41534 35460 ft 452 kts 119°
2026-05-07 15:43 50.80788 3.50284 35639 ft 454 kts 119°
2026-05-07 15:43 50.77789 3.59037 35800 ft 455 kts 119°
2026-05-07 15:44 50.74781 3.67786 35978 ft 455 kts 120°
2026-05-07 15:44 50.71772 3.76505 36010 ft 456 kts 120°
2026-05-07 15:45 50.68734 3.85279 36012 ft 456 kts 120°
2026-05-07 15:45 50.65698 3.94021 36012 ft 456 kts 120°
2026-05-07 15:46 50.61136 4.07090 36017 ft 456 kts 120°
2026-05-07 15:47 50.58073 4.15833 36021 ft 456 kts 120°
2026-05-07 15:47 50.55013 4.24536 36027 ft 457 kts 120°
2026-05-07 15:48 50.51955 4.33202 36028 ft 457 kts 120°
2026-05-07 15:48 50.48879 4.41885 36032 ft 456 kts 120°
2026-05-07 15:49 50.45782 4.50603 36030 ft 457 kts 120°
2026-05-07 15:49 50.42700 4.59255 36033 ft 457 kts 120°
2026-05-07 15:50 50.39594 4.67942 36030 ft 457 kts 121°
2026-05-07 15:50 50.36494 4.76581 36028 ft 457 kts 121°
2026-05-07 15:51 50.33368 4.85260 36024 ft 457 kts 121°
2026-05-07 15:51 50.30253 4.93872 36022 ft 457 kts 121°
2026-05-07 15:52 50.27124 5.02498 36021 ft 457 kts 121°
2026-05-07 15:52 50.23981 5.11141 36014 ft 458 kts 121°
2026-05-07 15:53 50.20830 5.19779 36008 ft 458 kts 121°
2026-05-07 15:53 50.17695 5.28346 36010 ft 458 kts 121°
2026-05-07 15:54 50.14537 5.36960 36006 ft 458 kts 120°
2026-05-07 15:54 50.11570 5.45688 36006 ft 459 kts 118°
2026-05-07 15:55 50.08584 5.54521 36013 ft 458 kts 118°
2026-05-07 15:55 50.05633 5.63221 36006 ft 459 kts 118°
2026-05-07 15:56 50.02678 5.71904 36003 ft 458 kts 119°
2026-05-07 15:56 49.99702 5.80613 36002 ft 459 kts 119°
2026-05-07 15:57 49.96702 5.89362 36004 ft 459 kts 119°
2026-05-07 15:57 49.93705 5.98072 36005 ft 459 kts 119°
2026-05-07 15:58 49.90695 6.06790 36005 ft 459 kts 119°
2026-05-07 15:58 49.87688 6.15471 35995 ft 459 kts 119°
2026-05-07 15:59 49.84658 6.24186 36009 ft 458 kts 118°
2026-05-07 15:59 49.81631 6.32876 36007 ft 459 kts 118°
2026-05-07 16:00 49.78601 6.41540 36003 ft 459 kts 118°
2026-05-07 16:00 49.75578 6.50154 36003 ft 459 kts 118°
2026-05-07 16:01 49.72529 6.58808 35996 ft 459 kts 118°
2026-05-07 16:01 49.69472 6.67456 35999 ft 459 kts 119°
2026-05-07 16:02 49.66489 6.75865 35990 ft 459 kts 119°
2026-05-07 16:02 49.63433 6.84452 35988 ft 460 kts 119°
2026-05-07 16:03 49.60351 6.93084 35985 ft 459 kts 119°
2026-05-07 16:03 49.57285 7.01643 35986 ft 458 kts 119°
2026-05-07 16:04 49.54269 7.10037 35984 ft 459 kts 119°
2026-05-07 16:04 49.51173 7.18626 35985 ft 459 kts 119°
2026-05-07 16:05 49.48077 7.27185 35990 ft 459 kts 119°
2026-05-07 16:05 49.44963 7.35764 35993 ft 460 kts 119°
2026-05-07 16:06 49.41837 7.44347 35993 ft 460 kts 119°
2026-05-07 16:06 49.38728 7.52853 35994 ft 460 kts 119°
2026-05-07 16:07 49.35599 7.61390 35993 ft 460 kts 119°
2026-05-07 16:07 49.32442 7.69975 35995 ft 460 kts 120°
2026-05-07 16:08 49.29292 7.78512 35994 ft 460 kts 120°
2026-05-07 16:08 49.26160 7.86970 35994 ft 460 kts 120°
2026-05-07 16:09 49.23000 7.95474 35984 ft 461 kts 120°
2026-05-07 16:09 49.19844 8.03943 35992 ft 461 kts 120°
2026-05-07 16:10 49.16660 8.12463 35988 ft 461 kts 120°
2026-05-07 16:10 49.13485 8.20928 35990 ft 461 kts 120°
2026-05-07 16:11 49.10301 8.29387 35990 ft 461 kts 120°
2026-05-07 16:11 49.07100 8.37866 35992 ft 462 kts 120°
2026-05-07 16:12 49.03898 8.46304 35992 ft 462 kts 121°
2026-05-07 16:12 49.00310 8.54340 35993 ft 460 kts 128°
2026-05-07 16:13 48.96065 8.61683 35987 ft 460 kts 136°
2026-05-07 16:13 48.91303 8.68098 35987 ft 459 kts 143°
2026-05-07 16:14 48.86321 8.74071 35987 ft 459 kts 143°
2026-05-07 16:14 48.81344 8.80039 35979 ft 459 kts 143°
2026-05-07 16:15 48.76386 8.85984 35983 ft 458 kts 143°
2026-05-07 16:15 48.71383 8.91972 35985 ft 458 kts 143°
2026-05-07 16:16 48.66609 8.97672 35984 ft 459 kts 143°
2026-05-07 16:16 48.61574 9.03669 35984 ft 459 kts 143°
2026-05-07 16:17 48.56556 9.09631 35985 ft 460 kts 144°
2026-05-07 16:17 48.51526 9.15589 35987 ft 460 kts 144°
2026-05-07 16:18 48.46497 9.21531 35986 ft 460 kts 144°
2026-05-07 16:18 48.41488 9.27435 35978 ft 460 kts 144°
2026-05-07 16:19 48.36440 9.33364 35973 ft 460 kts 144°
2026-05-07 16:19 48.31408 9.39264 35967 ft 460 kts 144°
2026-05-07 16:20 48.26356 9.45169 35973 ft 460 kts 144°
2026-05-07 16:20 48.21384 9.51175 35976 ft 461 kts 142°
2026-05-07 16:21 48.16466 9.57268 35980 ft 461 kts 142°
2026-05-07 16:21 48.11523 9.63362 35985 ft 461 kts 142°
2026-05-07 16:22 48.06569 9.69436 35988 ft 461 kts 143°
2026-05-07 16:22 48.01609 9.75496 35994 ft 461 kts 143°
2026-05-07 16:23 47.96645 9.81538 36006 ft 461 kts 143°
2026-05-07 16:23 47.91676 9.87574 36001 ft 461 kts 143°
2026-05-07 16:24 47.86695 9.93614 36011 ft 461 kts 144°
2026-05-07 16:24 47.81707 9.99644 36009 ft 461 kts 144°
2026-05-07 16:25 47.76736 10.05640 36015 ft 462 kts 144°
2026-05-07 16:25 47.71731 10.11661 36012 ft 462 kts 144°
2026-05-07 16:26 47.66761 10.17625 36017 ft 462 kts 144°
2026-05-07 16:26 47.61766 10.23603 36017 ft 462 kts 144°
2026-05-07 16:27 47.56750 10.29545 36019 ft 461 kts 146°
2026-05-07 16:27 47.51481 10.34910 36025 ft 460 kts 150°
2026-05-07 16:28 47.46127 10.40100 36023 ft 460 kts 150°
2026-05-07 16:28 47.40803 10.45258 36025 ft 461 kts 150°
2026-05-07 16:29 47.35442 10.50443 36024 ft 460 kts 150°
2026-05-07 16:29 47.30106 10.55589 36015 ft 460 kts 150°
2026-05-07 16:30 47.24864 10.60966 36024 ft 461 kts 148°
2026-05-07 16:30 47.19642 10.66452 36035 ft 461 kts 149°
2026-05-07 16:31 47.14444 10.71896 36045 ft 461 kts 149°
2026-05-07 16:31 47.09207 10.77367 36050 ft 462 kts 149°
2026-05-07 16:32 47.04002 10.82793 36045 ft 462 kts 149°
2026-05-07 16:32 46.98735 10.88274 36048 ft 463 kts 149°
2026-05-07 16:33 46.93510 10.93695 36035 ft 463 kts 149°
2026-05-07 16:33 46.88338 10.99047 36033 ft 462 kts 149°
2026-05-07 16:34 46.83146 11.04564 36016 ft 464 kts 146°
2026-05-07 16:34 46.78303 11.10838 36010 ft 468 kts 139°
2026-05-07 16:35 46.73782 11.17663 36011 ft 468 kts 138°
2026-05-07 16:35 46.69273 11.24487 36015 ft 469 kts 138°
2026-05-07 16:36 46.64749 11.31299 36028 ft 469 kts 138°
2026-05-07 16:36 46.60209 11.38112 36024 ft 470 kts 138°
2026-05-07 16:37 46.55663 11.44913 36007 ft 470 kts 138°
2026-05-07 16:37 46.51113 11.51703 36011 ft 470 kts 139°
2026-05-07 16:38 46.46558 11.58483 36009 ft 470 kts 139°
2026-05-07 16:38 46.41996 11.65257 36015 ft 470 kts 139°
2026-05-07 16:39 46.37447 11.71993 35998 ft 470 kts 139°
2026-05-07 16:39 46.32886 11.78731 35991 ft 469 kts 140°
2026-05-07 16:40 46.28315 11.85467 35983 ft 470 kts 140°
2026-05-07 16:40 46.23723 11.92215 35994 ft 470 kts 140°
2026-05-07 16:41 46.19162 11.98898 35996 ft 470 kts 140°
2026-05-07 16:41 46.14574 12.05608 35991 ft 470 kts 140°
2026-05-07 16:41 46.12279 12.08957 35775 ft 470 kts 140°
2026-05-07 16:42 46.09981 12.12308 35793 ft 470 kts 140°
2026-05-07 16:42 46.07697 12.15632 35895 ft 471 kts 140°
2026-05-07 16:42 46.05390 12.18985 35960 ft 472 kts 140°
2026-05-07 16:43 46.00775 12.25685 35962 ft 472 kts 140°
2026-05-07 16:43 45.96157 12.32369 35954 ft 473 kts 140°
2026-05-07 16:44 45.91541 12.39031 35962 ft 472 kts 140°
2026-05-07 16:44 45.86880 12.45748 35971 ft 471 kts 140°
2026-05-07 16:45 45.82277 12.52362 35971 ft 471 kts 140°
2026-05-07 16:45 45.77652 12.58991 35968 ft 471 kts 140°
2026-05-07 16:46 45.73025 12.65605 35959 ft 471 kts 141°
2026-05-07 16:46 45.68432 12.72160 35968 ft 470 kts 141°
2026-05-07 16:47 45.63799 12.78752 35957 ft 470 kts 141°
2026-05-07 16:47 45.59175 12.85316 35964 ft 470 kts 141°
2026-05-07 16:48 45.54531 12.91890 35953 ft 470 kts 141°
2026-05-07 16:48 45.49910 12.98416 35973 ft 470 kts 141°
2026-05-07 16:49 45.45271 13.04954 35954 ft 470 kts 141°
2026-05-07 16:49 45.40628 13.11476 35980 ft 469 kts 141°
2026-05-07 16:50 45.35987 13.17981 35956 ft 469 kts 142°
2026-05-07 16:50 45.31423 13.24516 35980 ft 472 kts 138°
2026-05-07 16:51 45.27196 13.31713 35977 ft 475 kts 134°
2026-05-07 16:51 45.23095 13.39006 35981 ft 475 kts 134°
2026-05-07 16:52 45.18970 13.46310 35983 ft 474 kts 134°
2026-05-07 16:52 45.14864 13.53553 35990 ft 475 kts 134°
2026-05-07 16:53 45.10739 13.60806 35988 ft 474 kts 134°
2026-05-07 16:53 45.06597 13.68074 36000 ft 474 kts 135°
2026-05-07 16:54 45.02468 13.75298 35997 ft 473 kts 135°
2026-05-07 16:54 44.98329 13.82517 36001 ft 472 kts 135°
2026-05-07 16:55 44.94221 13.89667 36010 ft 472 kts 135°
2026-05-07 16:55 44.90082 13.96850 36011 ft 472 kts 135°
2026-05-07 16:56 44.85946 14.04010 36010 ft 472 kts 135°
2026-05-07 16:56 44.79729 14.14743 36004 ft 473 kts 135°
2026-05-07 16:57 44.75562 14.21914 36002 ft 473 kts 135°
2026-05-07 16:57 44.71416 14.29033 36002 ft 472 kts 135°
2026-05-07 16:58 44.67266 14.36137 36000 ft 472 kts 135°
2026-05-07 16:58 44.63119 14.43218 35995 ft 473 kts 135°
2026-05-07 16:59 44.58947 14.50324 35997 ft 473 kts 135°
2026-05-07 16:59 44.54777 14.57413 35993 ft 472 kts 135°
2026-05-07 17:00 44.50576 14.64532 35993 ft 473 kts 135°
2026-05-07 17:00 44.46407 14.71585 35990 ft 473 kts 136°
2026-05-07 17:01 44.42202 14.78676 35991 ft 473 kts 136°
2026-05-07 17:01 44.38003 14.85743 35991 ft 473 kts 136°
2026-05-07 17:02 44.33819 14.92761 35993 ft 474 kts 136°
2026-05-07 17:02 44.29602 14.99823 35994 ft 474 kts 136°
2026-05-07 17:03 44.25400 15.06841 36001 ft 474 kts 136°
2026-05-07 17:03 44.21159 15.13908 36000 ft 474 kts 136°
2026-05-07 17:04 44.16958 15.20891 36004 ft 474 kts 136°
2026-05-07 17:04 44.12712 15.27927 36008 ft 475 kts 136°
2026-05-07 17:05 44.08483 15.34924 36010 ft 475 kts 136°
2026-05-07 17:05 44.04235 15.41931 36016 ft 475 kts 136°
2026-05-07 17:06 43.99985 15.48924 36017 ft 475 kts 136°
2026-05-07 17:06 43.95722 15.55924 36016 ft 475 kts 136°
2026-05-07 17:07 43.91462 15.62903 36024 ft 476 kts 136°
2026-05-07 17:07 43.87154 15.69945 36019 ft 475 kts 137°
2026-05-07 17:08 43.82887 15.76900 36020 ft 476 kts 137°
2026-05-07 17:08 43.78624 15.83828 36018 ft 476 kts 137°
2026-05-07 17:09 43.74316 15.90815 36011 ft 476 kts 137°
2026-05-07 17:09 43.70032 15.97748 35742 ft 476 kts 137°
2026-05-07 17:10 43.67858 16.01256 34925 ft 484 kts 137°
2026-05-07 17:10 43.65672 16.04776 33942 ft 491 kts 137°
2026-05-07 17:10 43.63467 16.08322 33012 ft 494 kts 136°
2026-05-07 17:10 43.61225 16.11932 32160 ft 495 kts 136°
2026-05-07 17:11 43.58986 16.15533 31487 ft 490 kts 136°
2026-05-07 17:11 43.56808 16.19037 30953 ft 484 kts 136°
2026-05-07 17:11 43.54636 16.22524 30357 ft 479 kts 136°
2026-05-07 17:11 43.52465 16.26001 29738 ft 475 kts 136°
2026-05-07 17:12 43.50371 16.29475 29155 ft 473 kts 133°
2026-05-07 17:12 43.48424 16.33152 28605 ft 470 kts 128°
2026-05-07 17:12 43.46668 16.36873 28081 ft 466 kts 127°
2026-05-07 17:12 43.44951 16.40599 27547 ft 461 kts 127°
2026-05-07 17:13 43.43257 16.44280 26967 ft 456 kts 127°
2026-05-07 17:13 43.41563 16.47946 26410 ft 451 kts 127°
2026-05-07 17:13 43.39884 16.51572 25883 ft 446 kts 127°
2026-05-07 17:13 43.38225 16.55143 25330 ft 441 kts 127°
2026-05-07 17:14 43.36597 16.58637 24806 ft 436 kts 127°
2026-05-07 17:14 43.34967 16.62131 24291 ft 431 kts 127°
2026-05-07 17:14 43.33372 16.65548 23778 ft 426 kts 128°
2026-05-07 17:14 43.31787 16.68935 23255 ft 421 kts 128°
2026-05-07 17:15 43.30191 16.72339 22722 ft 416 kts 128°
2026-05-07 17:15 43.28638 16.75647 22188 ft 413 kts 128°
2026-05-07 17:15 43.27101 16.78919 21653 ft 409 kts 127°
2026-05-07 17:15 43.25574 16.82165 21128 ft 405 kts 127°
2026-05-07 17:16 43.24057 16.85389 20611 ft 401 kts 127°
2026-05-07 17:16 43.22549 16.88593 20093 ft 397 kts 127°
2026-05-07 17:16 43.21069 16.91729 19569 ft 395 kts 127°
2026-05-07 17:16 43.19587 16.94864 19066 ft 391 kts 127°
2026-05-07 17:17 43.18109 16.97990 18559 ft 388 kts 127°
2026-05-07 17:17 43.16658 17.01055 18065 ft 384 kts 127°
2026-05-07 17:17 43.15204 17.04125 17524 ft 383 kts 127°
2026-05-07 17:17 43.13760 17.07168 16959 ft 382 kts 126°
2026-05-07 17:18 43.12303 17.10187 16460 ft 379 kts 127°
2026-05-07 17:18 43.10855 17.13139 16002 ft 375 kts 127°
2026-05-07 17:18 43.09402 17.16093 15553 ft 372 kts 127°
2026-05-07 17:18 43.07967 17.19011 15104 ft 368 kts 127°
2026-05-07 17:19 43.06556 17.21877 14649 ft 363 kts 127°
2026-05-07 17:19 43.05160 17.24714 14191 ft 357 kts 126°
2026-05-07 17:19 43.03797 17.27490 13775 ft 350 kts 127°
2026-05-07 17:19 43.02452 17.30219 13372 ft 346 kts 127°
2026-05-07 17:20 43.01122 17.32917 12966 ft 342 kts 127°
2026-05-07 17:20 42.99791 17.35610 12546 ft 339 kts 127°
2026-05-07 17:20 42.98488 17.38248 12147 ft 335 kts 127°
2026-05-07 17:20 42.97200 17.40853 11754 ft 330 kts 127°
2026-05-07 17:21 42.95915 17.43453 11360 ft 326 kts 127°
2026-05-07 17:21 42.94666 17.45974 10972 ft 322 kts 127°
2026-05-07 17:21 42.93428 17.48471 10585 ft 317 kts 127°
2026-05-07 17:21 42.92200 17.50943 10246 ft 311 kts 127°
2026-05-07 17:22 42.90985 17.53325 10127 ft 295 kts 130°
2026-05-07 17:22 42.89718 17.55436 10000 ft 284 kts 135°
2026-05-07 17:22 42.88367 17.57367 9668 ft 283 kts 137°
2026-05-07 17:22 42.86999 17.59271 9327 ft 280 kts 137°
2026-05-07 17:23 42.85645 17.61146 8997 ft 277 kts 137°
2026-05-07 17:23 42.84309 17.63000 8674 ft 274 kts 137°
2026-05-07 17:23 42.82970 17.64863 8350 ft 272 kts 137°
2026-05-07 17:23 42.81648 17.66703 8027 ft 269 kts 138°
2026-05-07 17:24 42.80356 17.68495 7710 ft 267 kts 138°
2026-05-07 17:24 42.79055 17.70303 7395 ft 266 kts 138°
2026-05-07 17:24 42.77836 17.72151 7079 ft 265 kts 131°
2026-05-07 17:24 42.76805 17.74245 6759 ft 265 kts 123°
2026-05-07 17:25 42.75934 17.76422 6441 ft 264 kts 121°
2026-05-07 17:25 42.75090 17.78606 6125 ft 260 kts 121°
2026-05-07 17:25 42.74254 17.80785 5816 ft 258 kts 121°
2026-05-07 17:25 42.73425 17.82923 5514 ft 254 kts 121°
2026-05-07 17:26 42.72606 17.85024 5215 ft 252 kts 120°
2026-05-07 17:26 42.71842 17.87148 4920 ft 249 kts 118°
2026-05-07 17:26 42.71085 17.89251 4625 ft 247 kts 119°
2026-05-07 17:26 42.70298 17.91347 4326 ft 246 kts 120°
2026-05-07 17:27 42.69495 17.93410 4082 ft 253 kts 121°
2026-05-07 17:27 42.68655 17.95519 4026 ft 249 kts 121°
2026-05-07 17:27 42.67859 17.97505 4019 ft 232 kts 121°
2026-05-07 17:27 42.67107 17.99368 4012 ft 219 kts 120°
2026-05-07 17:28 42.66399 18.01125 4004 ft 204 kts 120°
2026-05-07 17:28 42.65727 18.02795 3975 ft 200 kts 120°
2026-05-07 17:28 42.65080 18.04404 3804 ft 191 kts 120°
2026-05-07 17:28 42.64449 18.05975 3537 ft 185 kts 120°
2026-05-07 17:29 42.63852 18.07464 3274 ft 174 kts 120°
2026-05-07 17:29 42.63294 18.08857 3039 ft 163 kts 120°
2026-05-07 17:29 42.62775 18.10153 2826 ft 154 kts 120°
2026-05-07 17:29 42.62274 18.11405 2660 ft 144 kts 120°
2026-05-07 17:30 42.61811 18.12564 2474 ft 137 kts 120°
2026-05-07 17:30 42.61360 18.13693 2304 ft 136 kts 119°
2026-05-07 17:30 42.60914 18.14811 2134 ft 135 kts 119°
2026-05-07 17:30 42.60468 18.15928 1962 ft 134 kts 119°
2026-05-07 17:31 42.60024 18.17040 1784 ft 134 kts 119°
2026-05-07 17:31 42.59584 18.18147 1605 ft 133 kts 119°
2026-05-07 17:31 42.59146 18.19248 1425 ft 132 kts 118°
2026-05-07 17:31 42.58713 18.20339 1250 ft 130 kts 120°
2026-05-07 17:32 42.58287 18.21410 1078 ft 129 kts 120°
2026-05-07 17:32 42.57860 18.22484 903 ft 129 kts 119°
2026-05-07 17:32 42.57434 18.23550 743 ft 128 kts 118°
2026-05-07 17:32 42.57153 18.24260 638 ft 128 kts 118°
2026-05-07 17:33 42.56612 18.25632 522 ft 100 kts 118°
2026-05-07 17:33 42.56394 18.26175 523 ft 52 kts 119°
2026-05-07 17:33 42.56243 18.26548 518 ft 29 kts 118°
2026-05-07 17:33 42.56168 18.26629 517 ft 11 kts 214°
2026-05-07 17:34 42.56122 18.26538 516 ft 12 kts 242°
2026-05-07 17:34 42.56112 18.26426 517 ft 11 kts 297°
2026-05-07 17:34 42.56150 18.26333 519 ft 10 kts 296°
2026-05-07 17:34 42.56175 18.26249 520 ft 6 kts 268°
2026-05-07 17:35 42.56133 18.26208 518 ft 4 kts 208°
2026-05-07 17:35 42.56128 18.26205 518 ft 0 kts 208°